SCP
0 0 0 0 -0 0 0 0 0 0 0 0 0 0 0 0 0 0 0 0 0 0 -0 -0 -0 0 -0 0 -0 0 0 -0 0 0 0 0 0 0 0 0 0 0 0 0
0 0 0 0 -0 0 0 0 0 0 0 0 0 0 0 0 0 0 0 0 0 0 0 -0 -0 0 -0 0 0 0 0 0 0 0 0 0 0 0 0 0 0 0 0 0
0 0 0 0 0 -0 0 0 0 0 0 0 0 0 0 0 0 0 0 0 0 0 0 -0 0 0 0 -0 -0 -0 -0 0 0 0 0 0 0 0 0 0 0 0 0 0
0 0 0 0 0 -0 0 0 0 0 0 0 0 0 0 0 0 0 0 0 0 0 -0 -0 0 0 0 0 -0 -0 -0 0 0 0 0 0 0 0 0 0 0 0 0 0
0 0 0 0 0 -0 0 0 0 0 0 0 0 0 0 0 -0 0 0 0 0 -0 -0 -0 0 -0 0 -0 -0 -0 -0 -0 0 0 -0 0 0 0 0 0 0 0 0 0
0 0 0 0 0 -0 0 0 0 0 0 0 0 0 0 0 0 0 -0 0 -0 -0 -0 -0 -0 -0 -0 0 -0 0 -0 -0 -0 0 0 -0 0 0 0 0 0 0 0 0
0 0 0 0 0 -0 0 0 0 0 0 0 0 0 0 0 0 0 0 0 0 0 -0 -0 -0 -0 0 0 -0 -0 -0 -0 -0 -0 0 0 0 0 0 0 0 0 0 0
0 0 0 0 0 -0 0 0 0 0 0 0 -0 0 0 0 0 0 0 -0 0 0 -0 -0 -0 -0 -0 -0 -0 -0 -0 -0 -0 -0 -0 0 0 0 0 0 0 0 0 0
0 0 0 0 0 -0 -0 0 0 0 0 0 0 0 0 0 0 0 0 0 0 0 0 0 -0 0 -0 -0 -0 -0 0 0 -0 -0 -0 0 0 0 0 0 0 0 0 0
0 0 0 0 0 -0 -0 -0 0 0 -0 -0 -0 0 0 0 0 0 0 0 0 0 0 0 0 0 0 -0 -0 -0 0 -0 -0 -0 -0 -0 -0 -0 0 0 0 0 0 0
0 0 0 0 0 -0 -0 -0 0 0 0 0 0 0 0 0 0 0 0 0 0 0 0 0 0 0 0 -0 0 0 -0 -0 -0 -0 -0 -0 -0 0 0 0 -0 0 0 0
0 0 0 0 0 0 -0 -0 -0 -0 -0 -0 -0 0 0 0 0 0 0 0 0 0 0 0 0 0 0 0 0 0 0 0 0 0 0 0 0 0 0 0 0 0 0 -0
0 0 0 0 0 0 -0 -0 -0 -0 -0 0 0 0 0 0 0 0 0 0 0 0 0 0 0 0 0 0 0 0 0 0 0 0 -0 -0 0 0 0 0 0 0 0 0
0 0 0 0 0 0 0 0 -0 -0 0 0 0 0 0 0 0 0 0 0 0 0 0 0 0 0 0 0 0 0 0 0 0 0 0 0 0 0 0 0 0 -0 -0 0
0 0 0 0 0 0 0 0 0 0 0 0 0 0 0 0 0 0 0 0 0 0 0 0 0 0 0 0 0 0 0 0 0 0 0 0 0 0 0 0 0 0 0 -0
0 0 0 0 0 0 0 0 0 0 0 0 0 0 0 0 0 0 0 0 0 0 0 0 0 0 0 0 0 0 0 0 0 0 0 0 0 0 0 0 0 0 0 0
0 0 0 0 0 0 0 0 0 0 0 -0 0 0 0 0 0 0 0 0 0 0 0 0 0 0 0 0 0 -0 0 0 0 0 0 0 0 0 0 0 0 0 0 0
0 0 0 0 0 0 0 0 0 0 0 0 0 0 0 0 0 0 0 0 0 0 0 0 0 0 0 0 -0 -0 0 0 0 0 0 0 0 0 0 0 -0 0 0 0
0 0 0 0 0 0 -0 -0 0 0 0 0 0 0 0 0 0 0 0 0 0 0 0 0 0 0 0 -0 -0 -0 0 0 0 0 0 0 0 0 0 0 0 0 0 0
0 0 0 0 0 0 0 -0 0 0 0 0 0 0 0 0 0 0 0 0 0 0 0 0 0 0 0 0 0 0 0 0 0 0 0 0 0 0 0 0 0 0 0 0
0 0 0 0 0 0 0 0 0 0 0 0 0 0 0 0 0 0 0 0 0 0 0 0 0 0 0 0 0 0 0 0 0 0 0 0 0 0 0 0 0 0 0 0
0 0 0 0 0 0 0 0 0 0 0 0 0 0 0 0 0 0 0 0 0 0 0 0 0 -0 0 0 0 0 0 0 0 0 0 0 0 0 0 0 0 0 0 0
0 0 0 0 0 0 0 0 -0 0 0 0 0 0 0 0 0 0 0 0 0 0 0 0 0 0 0 0 0 0 0 0 0 0 0 0 0 0 0 0 0 0 0 0
0 0 0 0 0 0 0 -0 -0 -0 0 0 0 0 0 0 0 0 0 0 0 0 0 0 0 0 0 0 0 0 0 0 0 0 0 0 0 0 0 0 0 0 0 0
0 0 0 0 0 0 0 0 -0 -0 -0 -0 0 0 0 0 0 0 0 0 0 0 0 0 0 0 0 0 0 0 0 0 0 0 0 0 0 0 0 0 0 0 0 0
0 0 0 0 0 0 0 0 -0 -0 -0 -0 0 0 0 0 0 0 0 0 0 0 0 0 0 0 0 0 0 0 0 0 0 0 0 0 0 -0 0 0 0 0 0 0
0 0 0 0 0 0 0 0 0 -0 -0 0 0 0 0 0 0 0 0 0 0 0 0 0 0 0 0 0 0 0 0 0 0 0 0 0 0 -0 0 0 0 0 0 0
Wind_Speed_500mb
42 44 49 51 46 44 31 16 7 7 12 10 2 6 8 7 26 19 15 11 21 25 30 34 29 45 36 41 49 38 43 12 23 25 44 51 47 47 49 25 36 21 7 9
44 43 43 47 45 44 32 10 12 15 22 9 9 6 9 10 22 25 8 15 16 21 26 19 22 40 38 58 22 16 24 12 23 12 20 21 39 45 50 49 29 27 20 9
47 45 43 44 42 41 32 11 5 9 24 26 8 6 14 9 11 19 19 25 29 26 19 24 25 48 25 13 12 21 24 14 15 28 15 22 44 45 43 49 26 40 33 11
46 46 42 43 42 39 37 16 10 12 5 14 19 17 12 27 23 20 27 15 23 26 18 36 31 39 40 24 11 9 6 10 13 25 13 15 36 45 49 39 52 32 29 18
47 50 44 44 44 35 38 18 11 9 16 9 15 27 31 37 43 21 30 28 38 28 28 28 36 40 21 11 12 10 7 5 10 14 5 9 7 31 37 37 38 36 1 13
47 50 47 48 43 35 41 42 41 35 30 15 13 25 33 38 30 33 55 43 36 33 33 38 28 37 44 27 20 25 12 11 11 6 16 1 7 5 23 34 31 32 22 18
48 50 48 46 45 39 43 49 51 22 12 17 23 29 41 45 43 41 57 35 22 37 39 49 38 36 39 35 27 22 13 15 6 5 9 6 3 13 19 6 7 10 16 16
48 45 49 51 48 46 43 47 49 33 14 25 38 31 34 55 59 45 52 70 56 38 38 17 16 7 7 10 12 18 16 6 6 6 4 9 1 6 1 6 14 20 11 20
48 44 47 54 53 46 42 50 48 55 29 33 60 39 52 32 28 30 52 60 33 23 10 8 12 10 2 8 14 4 11 3 3 5 5 5 6 10 11 9 6 20 13 18
48 45 49 51 54 47 49 58 56 55 57 59 39 21 26 53 35 24 27 11 11 35 11 14 13 16 4 8 6 2 6 5 13 10 7 10 9 14 1 3 5 14 28 18
46 48 50 55 52 56 56 68 62 62 66 76 72 73 55 47 35 23 16 10 10 11 17 11 10 9 13 6 3 7 11 11 7 6 6 10 1 8 6 8 27 8 23 20
50 51 52 54 55 59 60 73 69 72 68 76 84 71 76 68 82 48 32 28 17 30 12 10 7 7 7 11 11 7 10 10 6 14 9 6 8 6 10 5 8 10 9 19
53 52 53 57 60 62 62 74 75 76 59 66 64 71 82 69 79 84 51 36 45 26 23 9 6 9 9 13 13 10 10 9 9 4 11 16 21 25 27 30 28 15 12 12
58 55 54 59 64 69 66 73 82 76 41 25 52 65 63 71 67 71 95 89 38 48 38 11 7 8 19 9 10 15 9 15 12 11 17 13 38 43 50 46 37 42 35 23
60 58 58 61 72 71 76 83 84 90 67 23 30 47 67 43 48 56 63 80 63 29 11 8 10 8 7 3 2 9 14 12 13 14 19 20 26 34 44 46 50 51 49 34
59 59 61 67 75 76 79 66 62 42 57 30 22 55 83 67 54 59 73 80 58 41 12 8 12 14 16 6 11 25 33 38 41 25 41 33 48 49 50 49 53 59 62 58
61 62 64 74 83 92 75 49 27 6 61 20 7 7 20 38 45 44 49 61 42 31 17 12 10 17 26 7 14 41 25 37 47 51 45 32 49 31 32 36 55 60 61 57
61 61 65 83 83 78 33 39 58 57 57 33 7 5 5 31 15 11 32 24 31 26 16 7 8 12 12 11 36 63 47 41 43 45 43 50 53 44 44 40 35 41 51 54
60 57 69 76 41 28 73 94 79 69 48 8 8 10 8 28 12 15 14 17 8 13 9 12 19 11 12 22 41 56 51 36 46 45 48 49 45 39 32 23 22 17 17 25
61 54 34 16 29 75 89 52 9 22 25 19 8 15 6 17 6 3 8 7 6 8 8 16 10 13 46 49 63 62 45 46 56 52 43 46 38 34 29 26 21 21 21 26
40 18 19 52 71 64 14 12 11 12 8 17 15 18 9 22 6 5 7 7 8 9 8 10 9 13 37 56 65 61 54 51 49 47 46 39 37 36 34 29 30 32 32 33
23 17 30 29 15 10 10 7 5 8 9 11 9 14 16 21 17 5 8 7 5 11 11 9 8 26 23 41 55 54 51 51 50 48 46 45 42 42 41 38 36 36 38 38
13 10 5 4 9 6 10 9 4 12 18 17 8 11 21 12 14 5 7 12 10 10 8 9 12 5 25 37 39 44 43 42 42 39 38 38 36 36 34 35 37 38 37 36
16 14 9 9 9 8 9 13 13 22 38 48 37 7 6 10 9 7 11 5 9 10 8 18 14 18 32 35 35 33 31 28 27 26 26 28 29 29 31 34 36 36 36 37
17 15 9 11 23 22 31 35 19 28 30 42 27 13 9 6 8 5 9 7 10 15 17 7 8 30 40 36 30 25 24 25 24 22 23 24 28 31 34 34 37 40 43 44
14 9 3 15 4 14 20 14 17 27 32 42 24 12 9 10 10 9 13 15 16 8 7 10 30 35 31 28 25 21 18 16 15 18 20 21 24 31 35 34 35 38 43 48
11 8 32 30 23 21 12 15 14 25 16 5 10 12 10 8 8 6 10 11 6 4 14 30 29 31 27 21 17 13 12 13 15 17 19 22 26 32 36 40 32 39 43 47
Wind_Direction_500mb
334 340 340 330 331 328 321 311 268 253 201 193 220 235 213 255 281 266 273 268 273 277 293 288 285 277 260 281 303 294 279 274 239 241 213 204 204 203 204 205 205 229 301 250
331 335 336 333 329 330 314 245 246 263 206 240 221 241 259 251 278 278 258 272 267 279 286 289 268 282 284 278 280 315 336 213 231 187 222 213 210 211 207 221 227 216 212 199
325 328 331 333 322 316 312 273 258 224 219 232 243 236 258 256 264 265 252 265 287 280 269 268 288 297 298 273 257 293 311 296 253 231 248 184 201 207 215 216 214 225 218 223
324 325 327 327 323 311 309 225 228 218 211 242 218 227 249 276 271 251 278 282 252 269 289 303 297 315 308 276 274 269 237 290 329 281 270 288 211 197 211 220 225 222 219 212
323 321 323 325 322 307 301 275 275 260 262 243 237 247 254 258 267 244 282 246 277 278 278 282 311 325 328 351 311 284 303 292 291 8 317 34 295 223 209 216 224 240 114 224
321 319 318 317 316 309 295 278 266 246 259 241 224 239 244 256 260 268 252 261 277 281 283 288 272 289 279 288 304 314 314 319 341 344 330 208 269 317 227 219 220 225 217 226
319 318 315 315 310 302 280 286 285 252 270 260 239 255 248 252 257 254 268 267 244 258 284 298 293 274 271 271 263 254 291 303 316 283 306 253 332 279 259 269 248 265 273 258
311 317 316 316 308 302 280 283 286 262 262 257 267 252 250 265 266 260 266 270 256 264 285 292 291 294 311 282 262 236 210 276 299 298 341 310 159 348 250 224 156 23 296 241
310 308 315 315 312 303 283 282 284 277 272 251 260 265 258 257 247 262 251 263 259 243 245 234 260 269 187 291 327 256 202 188 310 329 254 249 166 200 231 186 136 14 337 250
306 311 312 314 313 303 295 292 291 282 279 278 268 226 250 257 251 259 269 273 216 214 208 227 235 254 244 218 245 226 199 195 234 264 282 290 230 185 226 0 72 21 39 35
310 309 311 311 311 309 299 296 292 285 277 272 266 258 241 244 245 237 237 208 214 194 206 213 209 225 212 211 243 199 207 187 195 162 274 269 218 130 308 334 154 156 120 86
302 305 307 313 310 309 299 294 298 296 280 281 287 262 254 251 245 241 235 232 197 206 207 210 160 211 183 184 218 190 228 210 201 210 221 339 352 354 0 21 2 350 32 83
299 301 306 309 310 305 302 294 298 300 290 280 248 258 262 252 239 233 228 233 229 227 223 161 196 225 187 219 210 207 232 183 220 200 242 250 278 293 306 316 324 320 315 337
298 299 305 306 308 304 299 293 292 288 281 278 276 273 251 265 249 237 230 234 238 226 215 201 192 220 203 234 248 203 205 159 209 247 276 297 279 286 297 303 310 306 305 289
299 297 301 304 304 304 299 294 286 273 250 270 273 276 261 254 249 230 229 229 218 205 190 180 201 204 186 159 191 223 192 183 202 227 228 229 263 274 287 289 293 300 301 292
295 295 298 300 301 302 305 304 293 264 242 241 246 250 256 252 238 229 224 215 210 207 201 180 210 195 195 200 236 242 201 215 218 239 253 250 266 279 279 284 285 286 287 284
292 293 295 300 306 305 283 257 239 185 300 290 264 245 236 218 204 211 213 207 209 200 189 187 197 202 183 192 239 248 216 223 232 241 249 263 266 261 273 272 288 283 273 270
289 289 294 307 318 315 308 263 260 262 293 239 221 249 229 175 168 160 190 184 190 195 201 175 201 184 196 218 239 256 255 250 249 249 252 260 268 267 263 279 299 280 267 262
286 283 294 309 308 297 308 309 298 278 241 213 181 180 216 173 162 155 157 162 172 174 194 200 177 190 212 216 233 246 241 233 255 261 257 264 263 259 259 276 303 295 270 258
278 282 301 282 307 305 302 307 242 205 211 212 207 158 166 183 174 130 132 161 182 190 209 138 221 231 235 234 235 244 250 246 248 245 246 248 245 246 257 268 281 252 244 243
253 253 257 296 315 302 255 251 223 200 190 192 182 180 143 187 150 149 200 166 162 192 191 200 200 244 237 234 236 239 243 241 236 237 239 242 247 251 251 249 251 254 252 251
235 268 296 304 300 288 267 244 296 246 219 185 171 186 158 167 167 134 185 164 165 216 137 187 229 243 219 213 216 219 223 229 235 237 241 246 251 256 261 264 264 260 259 260
235 224 245 206 249 277 264 299 342 349 355 341 270 170 150 143 171 134 168 168 187 118 175 222 233 154 199 203 208 214 220 226 232 237 241 246 251 259 265 266 268 269 268 265
170 166 233 180 251 223 221 286 287 292 311 306 286 217 171 161 164 162 172 99 135 176 216 233 230 204 193 192 198 204 209 218 228 233 239 247 254 258 265 268 271 272 269 268
168 147 217 213 226 251 274 285 291 301 303 314 296 250 167 164 156 162 112 139 208 209 225 223 194 180 180 182 188 195 204 213 223 236 249 258 265 268 267 267 268 269 269 269
192 195 199 240 15 268 256 230 275 308 307 308 257 259 189 176 147 148 196 161 216 225 207 178 160 164 169 175 182 192 206 225 241 256 266 275 283 282 282 280 277 274 270 269
210 240 223 241 263 252 247 260 272 291 321 251 288 245 187 112 126 193 183 206 199 162 159 156 164 164 168 174 180 192 226 251 267 277 288 296 296 293 292 290 284 277 275 276
Wind_Speed_850mb
42 44 49 51 46 44 31 16 7 7 12 10 2 6 8 7 26 19 15 11 21 25 30 34 29 45 36 41 49 38 43 12 23 25 44 51 47 47 49 25 36 21 7 9
44 43 43 47 45 44 32 10 12 15 22 9 9 6 9 10 22 25 8 15 16 21 26 19 22 40 38 58 22 16 24 12 23 12 20 21 39 45 50 49 29 27 20 9
47 45 43 44 42 41 32 11 5 9 24 26 8 6 14 9 11 19 19 25 29 26 19 24 25 48 25 13 12 21 24 14 15 28 15 22 44 45 43 49 26 40 33 11
46 46 42 43 42 39 37 16 10 12 5 14 19 17 12 27 23 20 27 15 23 26 18 36 31 39 40 24 11 9 6 10 13 25 13 15 36 45 49 39 52 32 29 18
47 50 44 44 44 35 38 18 11 9 16 9 15 27 31 37 43 21 30 28 38 28 28 28 36 40 21 11 12 10 7 5 10 14 5 9 7 31 37 37 38 36 1 13
47 50 47 48 43 35 41 42 41 35 30 15 13 25 33 38 30 33 55 43 36 33 33 38 28 37 44 27 20 25 12 11 11 6 16 1 7 5 23 34 31 32 22 18
48 50 48 46 45 39 43 49 51 22 12 17 23 29 41 45 43 41 57 35 22 37 39 49 38 36 39 35 27 22 13 15 6 5 9 6 3 13 19 6 7 10 16 16
48 45 49 51 48 46 43 47 49 33 14 25 38 31 34 55 59 45 52 70 56 38 38 17 16 7 7 10 12 18 16 6 6 6 4 9 1 6 1 6 14 20 11 20
48 44 47 54 53 46 42 50 48 55 29 33 60 39 52 32 28 30 52 60 33 23 10 8 12 10 2 8 14 4 11 3 3 5 5 5 6 10 11 9 6 20 13 18
48 45 49 51 54 47 49 58 56 55 57 59 39 21 26 53 35 24 27 11 11 35 11 14 13 16 4 8 6 2 6 5 13 10 7 10 9 14 1 3 5 14 28 18
46 48 50 55 52 56 56 68 62 62 66 76 72 73 55 47 35 23 16 10 10 11 17 11 10 9 13 6 3 7 11 11 7 6 6 10 1 8 6 8 27 8 23 20
50 51 52 54 55 59 60 73 69 72 68 76 84 71 76 68 82 48 32 28 17 30 12 10 7 7 7 11 11 7 10 10 6 14 9 6 8 6 10 5 8 10 9 19
53 52 53 57 60 62 62 74 75 76 59 66 64 71 82 69 79 84 51 36 45 26 23 9 6 9 9 13 13 10 10 9 9 4 11 16 21 25 27 30 28 15 12 12
58 55 54 59 64 69 66 73 82 76 41 25 52 65 63 71 67 71 95 89 38 48 38 11 7 8 19 9 10 15 9 15 12 11 17 13 38 43 50 46 37 42 35 23
60 58 58 61 72 71 76 83 84 90 67 23 30 47 67 43 48 56 63 80 63 29 11 8 10 8 7 3 2 9 14 12 13 14 19 20 26 34 44 46 50 51 49 34
59 59 61 67 75 76 79 66 62 42 57 30 22 55 83 67 54 59 73 80 58 41 12 8 12 14 16 6 11 25 33 38 41 25 41 33 48 49 50 49 53 59 62 58
61 62 64 74 83 92 75 49 27 6 61 20 7 7 20 38 45 44 49 61 42 31 17 12 10 17 26 7 14 41 25 37 47 51 45 32 49 31 32 36 55 60 61 57
61 61 65 83 83 78 33 39 58 57 57 33 7 5 5 31 15 11 32 24 31 26 16 7 8 12 12 11 36 63 47 41 43 45 43 50 53 44 44 40 35 41 51 54
60 57 69 76 41 28 73 94 79 69 48 8 8 10 8 28 12 15 14 17 8 13 9 12 19 11 12 22 41 56 51 36 46 45 48 49 45 39 32 23 22 17 17 25
61 54 34 16 29 75 89 52 9 22 25 19 8 15 6 17 6 3 8 7 6 8 8 16 10 13 46 49 63 62 45 46 56 52 43 46 38 34 29 26 21 21 21 26
40 18 19 52 71 64 14 12 11 12 8 17 15 18 9 22 6 5 7 7 8 9 8 10 9 13 37 56 65 61 54 51 49 47 46 39 37 36 34 29 30 32 32 33
23 17 30 29 15 10 10 7 5 8 9 11 9 14 16 21 17 5 8 7 5 11 11 9 8 26 23 41 55 54 51 51 50 48 46 45 42 42 41 38 36 36 38 38
13 10 5 4 9 6 10 9 4 12 18 17 8 11 21 12 14 5 7 12 10 10 8 9 12 5 25 37 39 44 43 42 42 39 38 38 36 36 34 35 37 38 37 36
16 14 9 9 9 8 9 13 13 22 38 48 37 7 6 10 9 7 11 5 9 10 8 18 14 18 32 35 35 33 31 28 27 26 26 28 29 29 31 34 36 36 36 37
17 15 9 11 23 22 31 35 19 28 30 42 27 13 9 6 8 5 9 7 10 15 17 7 8 30 40 36 30 25 24 25 24 22 23 24 28 31 34 34 37 40 43 44
14 9 3 15 4 14 20 14 17 27 32 42 24 12 9 10 10 9 13 15 16 8 7 10 30 35 31 28 25 21 18 16 15 18 20 21 24 31 35 34 35 38 43 48
11 8 32 30 23 21 12 15 14 25 16 5 10 12 10 8 8 6 10 11 6 4 14 30 29 31 27 21 17 13 12 13 15 17 19 22 26 32 36 40 32 39 43 47
Wind_Direction_850mb
334 340 340 330 331 328 321 311 268 253 201 193 220 235 213 255 281 266 273 268 273 277 293 288 285 277 260 281 303 294 279 274 239 241 213 204 204 203 204 205 205 229 301 250
331 335 336 333 329 330 314 245 246 263 206 240 221 241 259 251 278 278 258 272 267 279 286 289 268 282 284 278 280 315 336 213 231 187 222 213 210 211 207 221 227 216 212 199
325 328 331 333 322 316 312 273 258 224 219 232 243 236 258 256 264 265 252 265 287 280 269 268 288 297 298 273 257 293 311 296 253 231 248 184 201 207 215 216 214 225 218 223
324 325 327 327 323 311 309 225 228 218 211 242 218 227 249 276 271 251 278 282 252 269 289 303 297 315 308 276 274 269 237 290 329 281 270 288 211 197 211 220 225 222 219 212
323 321 323 325 322 307 301 275 275 260 262 243 237 247 254 258 267 244 282 246 277 278 278 282 311 325 328 351 311 284 303 292 291 8 317 34 295 223 209 216 224 240 114 224
321 319 318 317 316 309 295 278 266 246 259 241 224 239 244 256 260 268 252 261 277 281 283 288 272 289 279 288 304 314 314 319 341 344 330 208 269 317 227 219 220 225 217 226
319 318 315 315 310 302 280 286 285 252 270 260 239 255 248 252 257 254 268 267 244 258 284 298 293 274 271 271 263 254 291 303 316 283 306 253 332 279 259 269 248 265 273 258
311 317 316 316 308 302 280 283 286 262 262 257 267 252 250 265 266 260 266 270 256 264 285 292 291 294 311 282 262 236 210 276 299 298 341 310 159 348 250 224 156 23 296 241
310 308 315 315 312 303 283 282 284 277 272 251 260 265 258 257 247 262 251 263 259 243 245 234 260 269 187 291 327 256 202 188 310 329 254 249 166 200 231 186 136 14 337 250
306 311 312 314 313 303 295 292 291 282 279 278 268 226 250 257 251 259 269 273 216 214 208 227 235 254 244 218 245 226 199 195 234 264 282 290 230 185 226 0 72 21 39 35
310 309 311 311 311 309 299 296 292 285 277 272 266 258 241 244 245 237 237 208 214 194 206 213 209 225 212 211 243 199 207 187 195 162 274 269 218 130 308 334 154 156 120 86
302 305 307 313 310 309 299 294 298 296 280 281 287 262 254 251 245 241 235 232 197 206 207 210 160 211 183 184 218 190 228 210 201 210 221 339 352 354 0 21 2 350 32 83
299 301 306 309 310 305 302 294 298 300 290 280 248 258 262 252 239 233 228 233 229 227 223 161 196 225 187 219 210 207 232 183 220 200 242 250 278 293 306 316 324 320 315 337
298 299 305 306 308 304 299 293 292 288 281 278 276 273 251 265 249 237 230 234 238 226 215 201 192 220 203 234 248 203 205 159 209 247 276 297 279 286 297 303 310 306 305 289
299 297 301 304 304 304 299 294 286 273 250 270 273 276 261 254 249 230 229 229 218 205 190 180 201 204 186 159 191 223 192 183 202 227 228 229 263 274 287 289 293 300 301 292
295 295 298 300 301 302 305 304 293 264 242 241 246 250 256 252 238 229 224 215 210 207 201 180 210 195 195 200 236 242 201 215 218 239 253 250 266 279 279 284 285 286 287 284
292 293 295 300 306 305 283 257 239 185 300 290 264 245 236 218 204 211 213 207 209 200 189 187 197 202 183 192 239 248 216 223 232 241 249 263 266 261 273 272 288 283 273 270
289 289 294 307 318 315 308 263 260 262 293 239 221 249 229 175 168 160 190 184 190 195 201 175 201 184 196 218 239 256 255 250 249 249 252 260 268 267 263 279 299 280 267 262
286 283 294 309 308 297 308 309 298 278 241 213 181 180 216 173 162 155 157 162 172 174 194 200 177 190 212 216 233 246 241 233 255 261 257 264 263 259 259 276 303 295 270 258
278 282 301 282 307 305 302 307 242 205 211 212 207 158 166 183 174 130 132 161 182 190 209 138 221 231 235 234 235 244 250 246 248 245 246 248 245 246 257 268 281 252 244 243
253 253 257 296 315 302 255 251 223 200 190 192 182 180 143 187 150 149 200 166 162 192 191 200 200 244 237 234 236 239 243 241 236 237 239 242 247 251 251 249 251 254 252 251
235 268 296 304 300 288 267 244 296 246 219 185 171 186 158 167 167 134 185 164 165 216 137 187 229 243 219 213 216 219 223 229 235 237 241 246 251 256 261 264 264 260 259 260
235 224 245 206 249 277 264 299 342 349 355 341 270 170 150 143 171 134 168 168 187 118 175 222 233 154 199 203 208 214 220 226 232 237 241 246 251 259 265 266 268 269 268 265
170 166 233 180 251 223 221 286 287 292 311 306 286 217 171 161 164 162 172 99 135 176 216 233 230 204 193 192 198 204 209 218 228 233 239 247 254 258 265 268 271 272 269 268
168 147 217 213 226 251 274 285 291 301 303 314 296 250 167 164 156 162 112 139 208 209 225 223 194 180 180 182 188 195 204 213 223 236 249 258 265 268 267 267 268 269 269 269
192 195 199 240 15 268 256 230 275 308 307 308 257 259 189 176 147 148 196 161 216 225 207 178 160 164 169 175 182 192 206 225 241 256 266 275 283 282 282 280 277 274 270 269
210 240 223 241 263 252 247 260 272 291 321 251 288 245 187 112 126 193 183 206 199 162 159 156 164 164 168 174 180 192 226 251 267 277 288 296 296 293 292 290 284 277 275 276